When you browse on this site, cookies collect data to enhance your experience and personalize the content and advertising you see.
Visit our Privacy Policy to learn more. By continuing to use the site, you agree to this use of cookies and data.
  • în România
  • Lista ţărilor
  • Pe 7 zile
  • Temperatura apei
  • Meteo pe hartă
  • Widget-uri
  • user-avatar
    Intrare

    Meteo pe oră la Ali Bayramli

    Astăzi, 20 August, Marţi

    Timp Temperatura Precipitaţii Vânt Presiune Umiditate
    00:00 +24°C° 0 mm 1 m/s 759 mmHg 46%
    01:00 +23°C° 0 mm 1 m/s 759 mmHg 47%
    02:00 +23°C° 0 mm 1 m/s 759 mmHg 47%
    03:00 +23°C° 0 mm 1 m/s 759 mmHg 47%
    04:00 +24°C° 0 mm 1 m/s 759 mmHg 43%
    05:00 +25°C° 0 mm 1 m/s 760 mmHg 40%
    06:00 +26°C° 0 mm 2 m/s 760 mmHg 36%
    07:00 +29°C° 0 mm 2 m/s 760 mmHg 32%
    08:00 +31°C° 0 mm 2 m/s 760 mmHg 28%
    09:00 +35°C° 0 mm 2 m/s 760 mmHg 23%
    10:00 +37°C° 0 mm 3 m/s 760 mmHg 21%
    11:00 +38°C° 0 mm 4 m/s 760 mmHg 18%
    12:00 +41°C° 0 mm 5 m/s 760 mmHg 15%
    13:00 +41°C° 0 mm 5 m/s 759 mmHg 16%
    14:00 +41°C° 0 mm 6 m/s 759 mmHg 16%
    15:00 +40°C° 0 mm 7 m/s 759 mmHg 17%
    16:00 +38°C° 0 mm 6 m/s 759 mmHg 21%
    17:00 +35°C° 0 mm 6 m/s 759 mmHg 25%
    18:00 +33°C° 0 mm 5 m/s 759 mmHg 29%
    19:00 +30°C° 0 mm 4 m/s 759 mmHg 35%
    20:00 +29°C° 0 mm 3 m/s 759 mmHg 41%
    21:00 +27°C° 0 mm 2 m/s 759 mmHg 46%
    22:00 +26°C° 0 mm 2 m/s 759 mmHg 46%
    23:00 +26°C° 0 mm 2 m/s 759 mmHg 46%

    Mâine, 21 August, Miercuri

    Timp Temperatura Precipitaţii Vânt Presiune Umiditate
    00:00 +25°C° 0 mm 2 m/s 758 mmHg 46%
    01:00 +25°C° 0 mm 2 m/s 758 mmHg 44%
    02:00 +24°C° 0 mm 1 m/s 758 mmHg 43%
    03:00 +24°C° 0 mm 1 m/s 758 mmHg 41%
    04:00 +25°C° 0 mm 1 m/s 759 mmHg 40%
    05:00 +25°C° 0 mm 1 m/s 759 mmHg 39%
    06:00 +26°C° 0 mm 1 m/s 759 mmHg 38%
    07:00 +28°C° 0 mm 1 m/s 759 mmHg 31%
    08:00 +31°C° 0 mm 1 m/s 759 mmHg 25%
    09:00 +35°C° 0 mm 2 m/s 759 mmHg 19%
    10:00 +37°C° 0 mm 2 m/s 758 mmHg 16%
    11:00 +37°C° 0 mm 1 m/s 758 mmHg 14%
    12:00 +40°C° 0 mm 1 m/s 758 mmHg 12%
    13:00 +40°C° 0 mm 3 m/s 757 mmHg 12%
    14:00 +41°C° 0 mm 4 m/s 757 mmHg 12%
    15:00 +42°C° 0 mm 6 m/s 756 mmHg 12%
    16:00 +40°C° 0 mm 6 m/s 756 mmHg 16%
    17:00 +37°C° 0 mm 5 m/s 756 mmHg 20%
    18:00 +35°C° 0 mm 5 m/s 756 mmHg 25%
    19:00 +32°C° 0 mm 4 m/s 756 mmHg 32%
    20:00 +29°C° 0 mm 3 m/s 756 mmHg 40%
    21:00 +27°C° 0 mm 2 m/s 756 mmHg 47%
    22:00 +26°C° 0 mm 2 m/s 756 mmHg 49%
    23:00 +26°C° 0 mm 2 m/s 756 mmHg 50%

    Poimâine, 22 August, Joi

    Timp Temperatura Precipitaţii Vânt Presiune Umiditate
    00:00 +25°C° 0 mm 1 m/s 756 mmHg 52%
    01:00 +25°C° 0 mm 2 m/s 756 mmHg 52%
    02:00 +25°C° 0 mm 2 m/s 756 mmHg 52%
    03:00 +25°C° 0 mm 2 m/s 756 mmHg 52%
    04:00 +25°C° 0 mm 2 m/s 756 mmHg 50%
    05:00 +26°C° 0 mm 1 m/s 756 mmHg 49%
    06:00 +26°C° 0 mm 1 m/s 756 mmHg 47%
    07:00 +29°C° 0 mm 1 m/s 756 mmHg 39%
    08:00 +32°C° 0 mm 1 m/s 756 mmHg 32%
    09:00 +34°C° 0 mm 1 m/s 756 mmHg 24%
    10:00 +37°C° 0 mm 2 m/s 756 mmHg 21%
    11:00 +39°C° 0 mm 3 m/s 756 mmHg 17%
    12:00 +41°C° 0 mm 4 m/s 755 mmHg 14%
    13:00 +41°C° 0 mm 5 m/s 755 mmHg 14%
    14:00 +41°C° 0 mm 5 m/s 755 mmHg 14%
    15:00 +41°C° 0 mm 6 m/s 754 mmHg 14%
    16:00 +40°C° 0 mm 6 m/s 754 mmHg 17%
    17:00 +37°C° 0 mm 5 m/s 754 mmHg 20%
    18:00 +35°C° 0 mm 5 m/s 754 mmHg 24%
    19:00 +33°C° 0 mm 4 m/s 755 mmHg 29%
    20:00 +30°C° 0 mm 3 m/s 755 mmHg 35%
    21:00 +28°C° 0 mm 2 m/s 755 mmHg 41%
    22:00 +27°C° 0 mm 2 m/s 755 mmHg 44%
    23:00 +27°C° 0 mm 2 m/s 755 mmHg 47%

    23 August, Vineri

    Timp Temperatura Precipitaţii Vânt Presiune Umiditate
    00:00 +26°C° 0 mm 1 m/s 755 mmHg 50%
    01:00 +26°C° 0 mm 2 m/s 755 mmHg 48%
    02:00 +26°C° 0 mm 2 m/s 755 mmHg 46%
    03:00 +27°C° 0 mm 2 m/s 755 mmHg 45%
    04:00 +27°C° 0 mm 2 m/s 755 mmHg 44%
    05:00 +27°C° 0 mm 2 m/s 755 mmHg 44%
    06:00 +27°C° 0 mm 2 m/s 755 mmHg 43%
    07:00 +29°C° 0 mm 1 m/s 756 mmHg 39%
    08:00 +31°C° 0 mm 1 m/s 756 mmHg 34%
    09:00 +33°C° 0 mm 1 m/s 756 mmHg 29%
    10:00 +37°C° 0 mm 2 m/s 755 mmHg 25%
    11:00 +39°C° 0 mm 3 m/s 755 mmHg 21%
    12:00 +42°C° 0 mm 4 m/s 755 mmHg 18%
    13:00 +42°C° 0 mm 5 m/s 755 mmHg 17%
    14:00 +42°C° 0 mm 6 m/s 754 mmHg 17%
    15:00 +43°C° 0 mm 7 m/s 754 mmHg 16%
    16:00 +40°C° 0 mm 7 m/s 754 mmHg 22%
    17:00 +38°C° 0 mm 6 m/s 754 mmHg 29%
    18:00 +34°C° 0 mm 6 m/s 754 mmHg 35%
    19:00 +33°C° 0 mm 5 m/s 754 mmHg 40%
    20:00 +32°C° 0 mm 4 m/s 755 mmHg 46%
    21:00 +29°C° 0 mm 3 m/s 755 mmHg 51%
    22:00 +29°C° 0 mm 3 m/s 755 mmHg 49%
    23:00 +29°C° 0 mm 3 m/s 755 mmHg 48%

    24 August, Sâmbătă

    Timp Temperatura Precipitaţii Vânt Presiune Umiditate
    00:00 +29°C° 0 mm 3 m/s 755 mmHg 46%
    01:00 +29°C° 0 mm 3 m/s 755 mmHg 45%
    02:00 +28°C° 0 mm 3 m/s 755 mmHg 44%
    03:00 +28°C° 0 mm 3 m/s 755 mmHg 43%
    04:00 +28°C° 0 mm 3 m/s 755 mmHg 45%
    05:00 +28°C° 0 mm 3 m/s 755 mmHg 47%
    06:00 +29°C° 0 mm 3 m/s 755 mmHg 48%
    07:00 +32°C° 0 mm 4 m/s 755 mmHg 42%
    08:00 +35°C° 0 mm 5 m/s 756 mmHg 35%
    09:00 +38°C° 0 mm 6 m/s 756 mmHg 29%
    10:00 +39°C° 0 mm 6 m/s 756 mmHg 26%
    11:00 +40°C° 0 mm 7 m/s 756 mmHg 22%
    12:00 +41°C° 0 mm 7 m/s 755 mmHg 19%
    13:00 +41°C° 0 mm 7 m/s 755 mmHg 19%
    14:00 +40°C° 0 mm 7 m/s 755 mmHg 20%
    15:00 +40°C° 0 mm 7 m/s 755 mmHg 20%
    16:00 +38°C° 0 mm 7 m/s 755 mmHg 22%
    17:00 +35°C° 0 mm 6 m/s 755 mmHg 24%
    18:00 +34°C° 0 mm 6 m/s 755 mmHg 27%
    19:00 +32°C° 0 mm 5 m/s 755 mmHg 30%
    20:00 +29°C° 0 mm 4 m/s 756 mmHg 34%
    21:00 +28°C° 0 mm 3 m/s 756 mmHg 37%
    22:00 +27°C° 0 mm 3 m/s 756 mmHg 37%
    23:00 +27°C° 0 mm 3 m/s 756 mmHg 37%

    25 August, Duminică

    Timp Temperatura Precipitaţii Vânt Presiune Umiditate
    00:00 +27°C° 0 mm 3 m/s 757 mmHg 36%
    01:00 +26°C° 0 mm 3 m/s 756 mmHg 37%
    02:00 +25°C° 0 mm 2 m/s 756 mmHg 38%
    03:00 +24°C° 0 mm 2 m/s 756 mmHg 39%
    04:00 +24°C° 0 mm 2 m/s 757 mmHg 39%
    05:00 +25°C° 0 mm 2 m/s 757 mmHg 40%
    06:00 +25°C° 0 mm 2 m/s 757 mmHg 40%
    07:00 +28°C° 0 mm 2 m/s 757 mmHg 34%
    08:00 +31°C° 0 mm 2 m/s 757 mmHg 27%
    09:00 +34°C° 0 mm 2 m/s 758 mmHg 21%
    10:00 +36°C° 0 mm 3 m/s 758 mmHg 18%
    11:00 +38°C° 0 mm 4 m/s 757 mmHg 15%
    12:00 +41°C° 0 mm 5 m/s 757 mmHg 12%
    13:00 +40°C° 0 mm 6 m/s 757 mmHg 13%
    14:00 +40°C° 0 mm 7 m/s 757 mmHg 13%
    15:00 +40°C° 0 mm 8 m/s 757 mmHg 13%
    16:00 +38°C° 0 mm 7 m/s 757 mmHg 17%
    17:00 +35°C° 0 mm 7 m/s 757 mmHg 21%
    18:00 +34°C° 0 mm 6 m/s 757 mmHg 25%
    19:00 +32°C° 0 mm 5 m/s 757 mmHg 30%
    20:00 +29°C° 0 mm 4 m/s 758 mmHg 34%
    21:00 +27°C° 0 mm 3 m/s 758 mmHg 39%
    22:00 +26°C° 0 mm 2 m/s 758 mmHg 41%
    23:00 +26°C° 0 mm 2 m/s 758 mmHg 42%
    Arată mai mult